www.pogodaiklimat.ru

Погода и климат >> Архив погоды >> Россия >> Магаданская область >> Сусуман


ПОГОДА в Сусумане

  • Прогноз погоды в Сусумане
  • Монитор погоды в Сусумане
  • Климат города

АРХИВ ПОГОДЫ в Сусумане

Время (UTC), дата Ветер
(напр.,м/с)
 
Видим.   Явления Облачность Т
(С)
Тd
(С)
f
(%)
Тe
(С)
Тes
(С)
Комфортность P
(гПа)
Po
(гПа)
Тmin
(С)
Tmax
(С)
R
(мм)
R24
(мм)
S
(см)
06 17.05 З 2 50 км 9/9 1000 м
[Cb cap]
+10.5 +0.9 51 +10 +10 999.5 924.3
09 17.05 Ю 1 50 км 9/6 1020 м
[Cb cap Ac trans Ci fib]
+9.3 +0.9 56 +9 +9 1000.3 924.8 +13.3
12 17.05 В 1 50 км 8/4 1000 м
[Cb cap Ac trans Ci fib]
+4.6 +0.3 74 +3 +3 1001.8 924.9
15 17.05 ЮВ 1 50 км 3/1 1000 м
[Sc Ac trans]
-1.5 -2.8 91 -4 -4 1003.4 924.7
18 17.05 СВ 1 50 км 8/3 1000 м
[Sc Ac trans]
-2.1 -2.7 96 -4 -4 1002.9 924.1
21 17.05 штиль 0 50 км 8/3 1000 м
[Sc Ac trans Ci fib]
+5.7 -0.6 64 +5 +7 999.4 923.0 -2.5
00 18.05 ЮЗ 3 50 км 9/4 1000 м
[Cb cap Ac trans Ci fib]
+8.1 -1.1 52 +6 +9 996.8 921.2
03 18.05 ЮЗ 3 50 км 9/4 1000 м
[Cb cap Ac trans Ci fib]
+8.1 -1.1 52 +6 +9 996.8 921.2
06 18.05 Ю 6-10
{10}
50 км 9/6 1200 м
[Cb cap Ac trans]
+8.6 -2.0 47 +5 +6 994.8 919.5
09 18.05 Ю 4 50 км 9/3 1000 м
[Cb cap Ac As Ci fib]
+3.8 -3.9 57 -0 0 996.6 919.8 +9.3
12 18.05 ЮВ 3 50 км 9/3 1000 м
[Cb cap Ac As]
+2.0 -5.1 59 -2 -2 997.8 920.5
15 18.05 Ю 1 50 км 9/1 1000 м
[Sc Ac As]
+0.4 -5.0 67 -1 -1 998.7 920.9
18 18.05 штиль 0 50 км 9/3 1000 м
[Sc Ac trans Ci fib]
-0.9 -5.1 73 -2 -2 998.9 920.7
21 18.05 З 2 50 км 9/1 1000 м
[Sc Ac trans]
+1.8 -5.3 59 -1 +1 997.3 920.0 -1.7
00 19.05 Ю 1 50 км 9/6 1140 м
[Sc Ac As]
+3.7 -5.5 51 +3 +5 996.1 919.4
03 19.05 ЮЗ 1 50 км 10/10 1110 м
[Cb cap]
+4.4 -3.9 55 +4 +4 995.8 919.3
06 19.05 З 1 50 км 9/8 960 м
[Cb cap Ac As]
+5.4 -3.0 55 +5 +6 995.0 918.8
09 19.05 штиль 0 50 км 9/6 1020 м
[Cb cap Ac trans]
+4.6 -3.5 56 +4 +4 995.8 919.3 +6.6
12 19.05 СВ 1 50 км 9/6 1020 м
[Sc Ac trans]
+2.0 -1.2 79 0 0 996.9 919.7
15 19.05 Ю 1 50 км 9/6 1000 м
[Sc Ac trans]
-0.2 -1.8 89 -2 -2 997.6 919.7
18 19.05 С 1 50 км в посл. час снег 10/8 930 м
[Sc Ac As]
-0.2 -1.2 93 -2 -2 997.0 919.2
21 19.05 С 2 50 км 10/10 720 м
[Cb cap]
+1.5 +0.2 91 -2 -2 995.9 918.7 -0.4 0.0
00 20.05 С 4 50 км 9/9 800 м
[Cb cap]
+4.6 +0.1 73 +1 +1 994.2 917.9
03 20.05 В 3
{10}
50 км 9/8 900 м
[Cb cap Ac trans Ci fib]
+6.7 -3.4 48 +4 +6 992.0 916.4
06 20.05 СВ 5 50 км {ливн. осадки} 10/10 840 м
[Cb cap]
+4.2 -3.3 58 -0 -0 992.9 916.6
09 20.05 СВ 4
{11}
50 км 9/9 960 м
[Cb cap]
+4.1 -6.5 46 0 +1 993.6 917.2 +7.1 0.1
12 20.05 СВ 5 50 км 10/10 900 м
[Cb cap]
+1.3 -3.9 68 -4 -4 995.4 918.1
15 20.05 СВ 3 50 км 10/10 960 м
[Cb cap]
+0.4 -3.7 74 -4 -4 995.0 917.5
18 20.05 СВ 3 10 км слабый ливневой снег 10/10 840 м
[Cb cap]
-0.1 -2.3 85 -5 -5 995.1 917.5
21 20.05 СВ 4 50 км {ливн. осадки} 10/10 900 м
[Cb cap]
+0.3 -3.9 73 -5 -5 995.0 917.5 -0.8 0.4
00 21.05 СВ 7-11
{12}
50 км {ливн. осадки} 9/8 930 м
[Cb cap Ac As]
+2.2 -5.9 55 -4 -3 994.4 917.4
03 21.05 СВ 7-11
{14}
50 км 10/4 600 м
[Cb cap Ac As]
+2.8 -5.3 55 -3 -2 994.1 917.3
06 21.05 СВ 8-11
{12}
50 км 10/6 960 м
[Cb cap Ac As]
+2.1 -4.9 60 -4 -4 995.1 918.0
09 21.05 СВ 6-11
{13}
50 км 10/8 960 м
[Cb cap Ac As]
+1.7 -4.3 64 -4 -4 996.6 919.3 +3.4
12 21.05 С 5
{11}
50 км 10/8 960 м
[Cb cap Ac As]
+0.5 -4.5 69 -5 -5 998.4 920.6
15 21.05 В 1
{10}
50 км 10/8 1000 м
[Cb cap Ac As]
-0.5 -4.4 75 -2 -2 999.4 921.3
18 21.05 СВ 3 10 км слабый ливневой снег 10/8 900 м
[Cb cap Ac As]
-0.7 -3.1 84 -5 -5 1000.6 922.4
21 21.05 С 2
{11}
50 км {ливн. осадки} 9/8 960 м
[Cb cap Ac trans]
+2.6 -3.2 66 -0 0 1000.8 923.4 -0.9
00 22.05 СВ 8-13
{14}
50 км 9/8 930 м
[Cb cap Ac trans]
+4.4 -4.8 51 -1 -1 1001.0 924.1
03 22.05 СВ 4
{13}
50 км 10/10 1000 м
[Cb cap]
+5.0 -5.1 48 +2 +2 1001.7 924.8
06 22.05 СВ 4
{11}
50 км 9/9 960 м
[Cb cap]
+4.0 -3.1 60 0 0 1003.2 926.0
09 22.05 СВ 5-10
{11}
50 км 9/6 1020 м
[Cb cap Ac As]
+4.0 -4.0 56 -0 -0 1004.9 927.6 +5.2
12 22.05 В 4
{12}
50 км 10/6 1020 м
[Cb cap Ac As]
+1.7 -5.0 61 -3 -3 1007.5 929.3
15 22.05 СВ 3 50 км 8/4 1000 м
[Cb cap Ac trans Ci fib]
0.0 -4.3 73 -4 -4 1009.1 930.3
18 22.05 СВ 1 50 км 8/4 1000 м
[Cb cap Ac trans Ci fib]
-1.5 -5.6 74 -3 -3 1010.6 931.4
21 22.05 СВ 2 50 км 8/3 1000 м
[Cb cap Ac trans Ci fib]
+2.8 -5.1 56 0 +2 1010.5 932.4 -1.5
00 23.05 СВ 4 50 км 9/6 1080 м
[Sc Ci fib]
+3.9 -5.5 50 0 +3 1010.4 932.6
03 23.05 В 3 50 км 8/8 1080 м
[Cu Sc]
+6.8 -5.6 41 +5 +7 1009.8 932.8
06 23.05 В 3
{10}
50 км 8/8 1200 м
[Sc]
+6.5 -4.9 44 +4 +5 1010.2 933.1
09 23.05 СВ 3 50 км 4/4 1000 м
[Sc]
+6.3 -4.8 45 +4 +4 1011.5 934.2 +8.4
12 23.05 СВ 2 50 км 3/3 1000 м
[Sc]
-0.3 -4.7 72 -4 -4 1014.8 935.6
15 23.05 ЮВ 1 50 км 1/1 1000 м
[Sc]
-5.4 -6.5 92 -8 -8 1017.3 936.4
18 23.05 В 1 н/о н/о -6.5 -7.2 95 -9 -9 1018.0 936.7
21 23.05 С 1 50 км 3/3 1000 м
[Sc]
+3.1 -3.8 60 +2 +5 1014.8 936.5 -6.9
00 24.05 ЮЗ 2 50 км 3/3 1000 м
[Cu Sc]
+9.1 -6.5 33 +8 +16 1011.4 934.9
03 24.05 ЮЗ 3 50 км 8/8 1170 м
[Cu Sc]
+10.8 -7.2 28 +10 +12 1009.7 933.8

 

Местоположение метеостанции Сусуман (Магаданская область, Россия): широта 62.78 долгота 148.10 высота над уровнем моря 655 м.

В архиве по умолчанию представлена погода в Сусумане за последнюю неделю. Архивные данные за месяц целиком и за предыдущие месяцы, начиная с января 2011 года, Вы можете получить, выбрав интересующий диапазон дат из раскрывающегося списка и нажав кнопку "Ввод!".

Внимание! Время в таблицах - всемирное. Для получения местного времени необходимо прибавить поправку, которая в Сусумане равна 11 ч.

Смотрите также архив погоды в соседних городах и на ближайших метеорологических станциях:

Погода в Ягодной (Магаданская область, Россия) (82 км)
Погода в Озере Джека Лондона (Магаданская область, Россия) (106 км)
Погода в Колымской (Магаданская область, Россия) (107 км)
Погода в Совхозе Эльген (Магаданская область, Россия) (127 км)
Погода в Усть-Бохапче (Магаданская область, Россия) (149 км)
Погода в Делянкире (Якутия, Россия) (171 км)
Погода в Усть-Омчуге (Магаданская область, Россия) (201 км)
Погода в Среднекане (Магаданская область, Россия) (218 км)
Погода в Сеймчане (Магаданская область, Россия) (219 км)
Погода в Оймяконе (Якутия, Россия) (258 км)

Пояснения к столбцам:

Ветер - указаны скорость ветра в м/с - средняя за 10 мин, порывы в срок и между сроками (в фигурных скобках) и направление, откуда дует ветер: С - северный, СВ - северо-восточный, В - восточный, ЮВ - юго-восточный, Ю - южный, ЮЗ - юго-западный, З - западный, СЗ - северо-западный.
Видимость - горизонтальная дальность видимости в метрах или километрах. При видимости от 1 до 10 км при отсутствии осадков обычно наблюдается дымка, при ухудшении видимости до 1 км и менее - туман. В сухую погоду видимость может ухудшаться дымом, пылью или мглою.
Явления - указаны атмосферные явления, наблюдавшиеся в срок или в последний час перед сроком; фигурными скобками обозначены явления, наблюдавшиеся между сроками (за 1-3 часа до срока); квадратными скобками обозначены град или гололедные отложения с указанием их диаметра в мм.
Облачность - указаны через наклонную черту общая и нижняя облачность в баллах и высота нижней границы облаков в метрах; квадратными скобками обозначены формы облаков: Ci - перистые, Cs - перисто-слоистые, Cc - перисто-кучевые, Ac - высококучевые, As - высокослоистые, Sc - слоисто-кучевые, Ns - слоисто-дождевые, Cu - кучевые, Cb - кучево-дождевые. Подробнее классификацию облаков см. в Атласе облаков (PDF).
T - Температура воздуха - температура, измеренная на высоте 2 м над землей.
Td - Температура точки росы - температура, при понижении до которой содержащийся в воздухе водяной пар достигнет насыщения.
f - Относительная влажность воздуха - влажноcть воздуха, измеренная на высоте 2 м над землей.
Te - Эффективная температура - температура, которую ощущает одетый по сезону человек в тени. Характеристика душности погоды. При расчете учитывается влияние влажности воздуха и скорости ветра на теплоощущения человека.
Tes - Эффективная температура на солнце - температура, которую ощущает человек, с поправкой на солнечный нагрев. Характеристика знойности погоды. Зависит от высоты солнца над горизонтом, облачности и скорости ветра. Ночью, в пасмурную погоду, а также при ветре 12 м/с и более поправка равна нулю.
P - Атмосферное давление - приведенное к уровню моря атмосферное давление.
Po - Атмосферное давление - измеренное на уровне метеостанции атмосферное давление.
Tmin - Минимальная температура - минимум температуры воздуха на высоте 2 м над землей.
Tmax - Максимальная температура - максимум температуры воздуха на высоте 2 м над землей.
R - Количество осадков - Количество выпавших осадков за период времени, мм. При наведении курсора мыши на число - период времени, за который выпало указанное количество осадков.
R24 - Количество осадков - Количество выпавших осадков за 24 часа, мм.
S - Снежный покров - Высота снежного покрова, см. При наведении курсора мыши на число - состояние снежного покрова и степень покрытия местности в баллах.